Simultaneous Nadir Overpasses (SNOs) Predictions

Prediction of SNOs between AQUA and NOAA-19 Satellite Orbit:

Table of predicted SNOs for the next 14.0 days since TLE Epoch: 3/12/2022
Index Date (AQUA) Time (AQUA) Lat,Lon (AQUA) SZA (AQUA ) Date (NOAA-19) Time (NOAA-19) Lat,Lon (NOAA-19) SZA (NOAA-19 ) Distance(km) Time Diff (sec)
1 03/12/2022 15:31:32 -77.92, 109.09 98.23 03/12/2022 15:30:37 -77.89, 109.16 98.24 3.25 55
2 03/12/2022 16:21:00 77.95, -83.42 81.80 03/12/2022 16:21:36 77.92, -83.45 81.76 3.79 36
3 03/14/2022 21:54:35 -77.90, 13.42 99.16 03/14/2022 21:54:38 -77.90, 13.32 99.15 2.43 3
4 03/17/2022 03:28:12 77.88, 110.09 79.94 03/17/2022 03:27:38 77.89, 110.06 79.95 0.89 34
5 03/17/2022 04:17:39 -77.94, -82.52 100.01 03/17/2022 04:18:39 -77.91, -82.54 100.05 2.75 60
6 03/19/2022 09:01:47 -77.86,-153.19 101.00 03/19/2022 09:00:41 -77.88,-153.16 100.95 2.69 66
7 03/19/2022 09:51:15 77.90, 14.27 79.05 03/19/2022 09:51:38 77.91, 14.26 79.05 1.27 23
8 03/21/2022 15:24:50 -77.89, 110.94 101.87 03/21/2022 15:24:42 -77.88, 110.93 101.86 0.32 8
9 03/21/2022 16:14:24 78.19, -82.86 78.52 03/21/2022 16:15:30 78.23, -79.78 78.32 70.14 66
10 03/23/2022 20:58:26 77.88,-152.43 77.24 03/23/2022 20:57:40 77.86,-152.34 77.23 2.84 46
11 03/23/2022 21:47:52 -77.88, 15.19 102.77 03/23/2022 21:48:42 -77.92, 15.21 102.75 3.78 50



Historial Predications of SNOs between AQUA and NOAA-19
